Home   Weather   Centennial   Past weeks

Flag for USA Past Weather in Centennial, Colorado, USA — Yesterday and Last 2 Weeks

Now
19 °F

Clear.


Feels Like: 11 °F
Forecast: 24 / 51 °F
Wind: 6 mph from South

Location: Centennial Airport

Current Time: Jan 18, 2017 at 5:21:11 am

Latest Report: Jan 18, 2017 at 4:53 am


Visibility: 10 mi

Pressure: 30.02 "Hg (23.88 "Hg at 1781m altitude)

Humidity: 68%

Dew Point: 10 °F

Location of CentennialLocation

Past Weather in Centennial — Graph

°F

Centennial Temperature Yesterday

Maximum temperature yesterday: 47 °F (at 2:53 pm)
Minimum temperature yesterday: 21 °F (at 1:53 am)
Average temperature yesterday: 30 °F

High & Low Weather Summary for the Past Weeks

 TemperatureHumidityPressure
High59 °F (Jan 9, 12:53 pm)96% (Jan 13, 8:53 am)30.53 "Hg (Jan 13, 8:53 am)
Low-6 °F (Jan 6, 7:53 am)22% (Jan 6, 12:53 pm)29.39 "Hg (Jan 11, 11:53 am)
Average27 °F68%30.07 "Hg
* Reported Jan 3 3:53 am — Jan 18 3:53 am, Centennial, Weather by CustomWeather, © 2017

Note: Actual official high and low records may vary slightly from our data, if they occured in-between our weather recording intervals... More about our weather records

Advertising

Centennial Weather History for the Previous 24 Hours

Scroll right to see more
 ConditionsComfort  
Time TempWeatherWind HumidityBarometerVisibility
3:53 am
Wed, Jan 18
21 °FClear.6 mph71%30.00 "Hg10 mi
2:53 am22 °FClear.5 mph72%30.00 "Hg10 mi
1:53 am24 °FClear.3 mph68%30.03 "Hg10 mi
12:53 am23 °FClear.6 mph72%30.05 "Hg10 mi
11:53 pm
Tue, Jan 17
23 °FPassing clouds.5 mph74%30.09 "Hg10 mi
10:53 pm25 °FPassing clouds.7 mph75%30.10 "Hg10 mi
9:53 pm28 °FPassing clouds.8 mph72%30.11 "Hg10 mi
8:53 pm29 °FPassing clouds.12 mph75%30.14 "Hg10 mi
7:53 pm30 °FPassing clouds.7 mph72%30.14 "Hg10 mi
6:53 pm34 °FPassing clouds.5 mph70%30.13 "Hg10 mi
5:53 pm30 °FPassing clouds.6 mph54%30.15 "Hg10 mi
4:53 pm42 °FPassing clouds.3 mph28%30.09 "Hg10 mi
3:53 pm46 °FPassing clouds.3 mph25%30.05 "Hg10 mi
2:53 pm47 °FPassing clouds.3 mph42%30.04 "Hg10 mi
1:53 pm44 °FPassing clouds.3 mph51%30.04 "Hg10 mi
12:53 pm42 °FPassing clouds.3 mph55%30.04 "Hg10 mi
11:53 am38 °FPassing clouds.5 mph65%30.09 "Hg10 mi
10:53 am34 °FPassing clouds.3 mph70%30.14 "Hg10 mi
9:53 am29 °FSunny.3 mph79%30.16 "Hg10 mi
8:53 am22 °FSunny.6 mph85%30.19 "Hg10 mi
7:53 am22 °FSunny.10 mph85%30.16 "Hg10 mi
6:53 am21 °FClear.5 mph88%30.16 "Hg10 mi
5:53 am22 °FClear.9 mph85%30.14 "Hg10 mi
Weather by CustomWeather, © 2017

See weather overviewHow to use our weather pages